Regional Weather Roundup
Issued by NWS

Home | Current Version | Previous Version | Graphics & Text | Print | Product List | Glossary On
Versions: 1 2 3 4 5 6 7 8 9 10 11 12 13 14 15 16 17 18 19 20 21 22 23 24 25 26 27 28 29 30 31 32 33 34 35 36 37 38 39 40 41 42 43 44 45 46 47 48 49 50
000
ASUS43 KLMK 030910
RWRKY
KENTUCKY REGIONAL WEATHER ROUNDUP
NATIONAL WEATHER SERVICE LOUISVILLE KY
500 AM EDT SUN MAY 03 2015

NOTE "FAIR" INDICATES FEW OR NO CLOUDS BELOW 12,000 FEET
WITH NO SIGNIFICANT WEATHER AND/OR OBSTRUCTIONS TO VISIBILITY.

KYZ001>023-026-027-061>063-070>075-031000-
WESTERN AND SOUTH CENTRAL KENTUCKY

CITY           SKY/WX    TMP DP  RH WIND       PRES   REMARKS
PADUCAH        CLEAR     52  48  86 CALM      30.05R
HENDERSON      PTCLDY    57  48  72 CALM      30.05S
OWENSBORO      CLEAR     54  49  83 CALM      30.07S
HOPKINSVILLE   CLEAR     54  49  83 CALM      30.07R HAZE
BOWLING GREEN  CLEAR     48  45  89 CALM      30.09R FOG
GLASGOW        CLEAR     47  47 100 CALM      30.10R
$$

KYZ024-025-028>034-038-045-046-053-031000-
NORTH CENTRAL KENTUCKY

CITY           SKY/WX    TMP DP  RH WIND       PRES   REMARKS
LOUISVILLE/SDF MOCLDY    55  48  77 CALM      30.09R
LOUISVILLE/LOU MOCLDY    52  47  83 CALM      30.09R
FORT KNOX      PTCLDY    48  46  92 CALM      30.07R
$$

KYZ035>037-039>044-047>052-055>060-089>105-031000-
NORTHEAST KENTUCKY

CITY           SKY/WX    TMP DP  RH WIND       PRES   REMARKS
LEXINGTON      CLEAR     50  45  83 S3        30.10R
COVINGTON      PTCLDY    50  46  86 CALM      30.09R
FRANKFORT      CLEAR     48  44  86 CALM      30.09R
$$

KYZ054-064>069-076>088-106>120-031000-
SOUTHEAST KENTUCKY

CITY           SKY/WX    TMP DP  RH WIND       PRES   REMARKS
JACKSON        CLEAR     55  39  54 S3        30.11R
LONDON         CLEAR     46  41  82 CALM      30.12R
SOMERSET       CLEAR     43  43 100 CALM      30.13R
MIDDLESBORO    CLEAR     42  42  99 CALM      30.15R
MONTICELLO     SUNNY     44  43  97 CALM      30.14R
$$



USA.gov is the U.S. government's official web portal to all federal, state and local government web resources and services.